Portsmouth, NH

8:57 AM EDT on July 23, 2017 (GMT -0400)
Pease International Tradeport

Weather History for KPSM - June, 2013

Change the Weather History Date:

Sunday, June 9, 2013

  Actual Average Record
Temperature  
Mean Temperature 67 °F -  
Max Temperature 79 °F 69 °F 95 °F (1984)
Min Temperature 55 °F 51 °F 33 °F (1983)
Cooling Degree Days 2    
Growing Degree Days 17 (Base 50)    
Moisture  
Dew Point 55 °F    
Average Humidity 66    
Maximum Humidity 99    
Minimum Humidity 40    
Precipitation  
Precipitation 0.00 in - - ()
Sea Level Pressure  
Sea Level Pressure 30.07 in    
Wind  
Wind Speed 6 mph (West)    
Max Wind Speed 13 mph    
Max Gust Speed -    
Visibility 10 miles    
Events      
Averages and records for this station are not official NWS values.
T = Trace of Precipitation, MM = Missing Value Source: NWS Daily Summary

Daily Weather History Graph

Daily Weather History Graph

Search for Another Location

Airport or City:

Trip Planner

Search our weather history database for the weather conditions in past years. The results will help you decide how hot, cold, wet, or windy it might be!

Date:

Astronomy

Jun. 09, 2013 Rise Set
Actual Time 5:03 AM EDT 8:21 PM EDT
Civil Twilight 4:28 AM EDT 8:56 PM EDT
Nautical Twilight 3:43 AM EDT 9:42 PM EDT
Astronomical Twilight 2:47 AM EDT 10:38 PM EDT
Moon 5:59 AM EDT (6/9) 9:04 PM EDT (6/9)
Length of Visible Light 16h 28m
Length of Day
15h 17m
New Moon, 1% of the Moon is Illuminated
Jun 9
New Moon
Jun 16
First Quarter
Jun 23
Full
Jun 30
Last Quarter
Jul 8
New

Hourly Weather History & Observations

Time (EDT) Temp. Dew Point Humidity Pressure Visibility Wind Dir Wind Speed Gust Speed Precip Events Conditions
12:58 AM 60.6 °F 58.1 °F 91% 30.00 in 10.0 mi West 6.9 mph - N/A   Mostly Cloudy
1:58 AM 59.5 °F 57.6 °F 93% 30.01 in 10.0 mi West 4.6 mph - N/A   Partly Cloudy
2:58 AM 56.8 °F 56.5 °F 99% 30.02 in 10.0 mi SW 3.5 mph - N/A   Scattered Clouds
3:58 AM 56.5 °F 55.4 °F 96% 30.04 in 10.0 mi WSW 5.8 mph - N/A   Scattered Clouds
4:58 AM 55.9 °F 54.7 °F 96% 30.04 in 10.0 mi WSW 2.3 mph - N/A   Partly Cloudy
5:58 AM 57.0 °F 55.9 °F 96% 30.06 in 10.0 mi West 3.5 mph - N/A   Scattered Clouds
6:58 AM 59.5 °F 56.7 °F 90% 30.07 in 10.0 mi WSW 8.1 mph - N/A   Scattered Clouds
7:58 AM 64.0 °F 57.6 °F 79% 30.09 in 10.0 mi West 6.9 mph - N/A   Scattered Clouds
8:58 AM 68.4 °F 58.6 °F 71% 30.10 in 10.0 mi West 8.1 mph - N/A   Scattered Clouds
9:58 AM 71.4 °F 56.7 °F 60% 30.09 in 10.0 mi WNW 9.2 mph - N/A   Mostly Cloudy
10:58 AM 73.6 °F 55.0 °F 52% 30.09 in 10.0 mi West 6.9 mph - N/A   Scattered Clouds
11:58 AM 76.5 °F 55.8 °F 49% 30.08 in 10.0 mi SW 9.2 mph - N/A   Mostly Cloudy
12:58 PM 75.0 °F 53.8 °F 47% 30.07 in 10.0 mi Variable 5.8 mph - N/A   Mostly Cloudy
1:58 PM 78.3 °F 52.0 °F 40% 30.06 in 10.0 mi WSW 11.5 mph - N/A   Mostly Cloudy
2:58 PM 79.0 °F 53.1 °F 40% 30.05 in 10.0 mi West 12.7 mph - N/A   Mostly Cloudy
3:58 PM 76.6 °F 51.4 °F 41% 30.06 in 10.0 mi WNW 9.2 mph - N/A   Mostly Cloudy
4:58 PM 77.7 °F 52.0 °F 41% 30.06 in 10.0 mi WSW 8.1 mph - N/A   Mostly Cloudy
5:58 PM 77.4 °F 51.6 °F 41% 30.07 in 10.0 mi WNW 8.1 mph - N/A   Scattered Clouds
6:58 PM 75.9 °F 52.0 °F 43% 30.09 in 10.0 mi WNW 5.8 mph - N/A   Partly Cloudy
7:58 PM 72.3 °F 52.5 °F 50% 30.10 in 10.0 mi West 4.6 mph - N/A   Partly Cloudy
8:58 PM 68.4 °F 53.8 °F 60% 30.10 in 8.0 mi SW 3.5 mph - N/A   Mostly Cloudy
9:58 PM 64.4 °F 53.6 °F 68% 30.13 in 8.0 mi West 3.5 mph - N/A   Mostly Cloudy
10:58 PM 63.1 °F 55.0 °F 75% 30.14 in 8.0 mi West 5.8 mph - N/A   Partly Cloudy
11:58 PM 62.8 °F 54.3 °F 74% 30.16 in 8.0 mi NW 4.6 mph - N/A   Partly Cloudy